EST,Max TemperatureF,Mean TemperatureF,Min TemperatureF,Max Dew PointF,MeanDew PointF,Min DewpointF,Max Humidity, Mean Humidity, Min Humidity, Max Sea Level PressureIn, Mean Sea Level PressureIn, Min Sea Level PressureIn, Max VisibilityMiles, Mean VisibilityMiles, Min VisibilityMiles, Max Wind SpeedMPH, Mean Wind SpeedMPH, Max Gust SpeedMPH,PrecipitationIn, CloudCover, Events, WindDirDegrees
2012-11-1,51,44,37,39,37,34,89,74,60,29.65,29.62,29.60,10,10,10,15,6,20,0.00,5,,266
2012-11-2,52,46,42,37,35,30,76,64,53,29.81,29.70,29.65,10,10,10,17,10,25,0.00,7,Rain,301
2012-11-3,50,44,40,31,29,27,66,55,48,29.99,29.88,29.81,10,10,10,17,12,26,0.00,7,,307
2012-11-4,48,42,35,31,29,26,71,60,51,30.02,29.99,29.96,10,10,10,15,9,,0.00,4,,290
2012-11-5,44,37,29,29,26,21,71,60,48,30.17,30.05,29.98,10,10,10,14,10,,0.00,5,,327
2012-11-6,45,35,25,26,23,18,78,61,44,30.21,30.14,30.02,10,9,4,12,6,,0.01,3,,25
2012-11-7,39,36,32,33,31,26,100,90,61,29.98,29.83,29.78,10,5,1,21,15,25,0.37,7,Rain-Snow,342
2012-11-8,45,38,32,32,28,20,100,78,39,29.95,29.80,29.77,10,8,2,20,13,25,0.34,6,Rain-Snow,318
2012-11-9,53,43,33,31,27,24,83,57,38,30.22,30.10,29.96,10,10,10,16,10,21,0.00,0,,288
2012-11-10,57,44,32,40,36,30,95,74,47,30.41,30.33,30.22,10,10,8,7,1,,0.00,2,,151
2012-11-11,70,52,35,54,39,34,100,93,34,30.47,30.43,30.39,10,3,0,13,3,22,0.00,0,Fog,146
2012-11-12,69,54,40,58,50,41,100,90,59,30.45,30.39,30.17,10,4,0,15,4,23,0.00,1,Fog,176
2012-11-13,61,48,35,59,43,28,100,87,70,30.44,30.29,30.13,10,10,6,25,10,32,0.21,7,Rain,334
2012-11-14,48,38,29,31,28,25,86,69,48,30.51,30.46,30.43,10,10,10,14,8,,0.00,1,,353
2012-11-15,46,38,31,32,29,24,84,69,52,30.41,30.36,30.28,10,10,10,12,4,,0.00,2,,25
2012-11-16,46,38,30,31,27,24,85,69,48,30.43,30.33,30.27,10,10,10,9,6,,0.00,4,,339
2012-11-17,53,40,28,36,30,24,94,68,45,30.60,30.54,30.43,10,10,10,12,8,,0.00,0,Rain,19
2012-11-18,50,41,32,39,36,28,88,74,62,30.63,30.58,30.52,10,10,10,12,6,,0.00,6,,28
2012-11-19,50,44,39,41,39,30,85,74,66,30.52,30.33,30.22,10,10,7,13,8,,0.00,7,,21
2012-11-20,51,42,34,41,34,29,89,70,42,30.21,30.15,30.09,10,10,10,8,4,,0.00,4,,23
2012-11-21,53,43,33,36,31,27,85,70,40,30.22,30.17,30.12,10,10,10,12,4,,0.00,2,,351
2012-11-22,55,44,32,41,33,25,100,85,53,30.26,30.17,30.13,10,6,0,8,3,,0.00,0,Fog,359
2012-11-23,58,44,29,49,34,28,100,94,48,30.13,30.03,29.70,10,3,0,9,1,,0.01,2,Fog-Rain,220
2012-11-24,48,42,36,33,22,18,59,48,39,29.90,29.80,29.70,10,10,10,21,14,30,0.01,5,,297
2012-11-25,41,33,25,22,20,18,78,57,44,29.99,29.94,29.90,10,10,10,18,9,24,0.00,2,,270
2012-11-26,48,36,23,26,23,19,85,61,34,30.24,30.12,29.98,10,10,10,14,3,,0.00,1,,285
2012-11-27,39,36,32,37,34,27,100,91,70,30.26,30.21,30.17,10,8,2,13,6,,0.39,7,Rain,15
2012-11-28,41,36,29,34,27,21,93,74,49,30.31,30.23,30.17,10,10,10,17,7,,0.00,5,,303
2012-11-29,46,36,27,25,23,20,76,62,41,30.39,30.34,30.30,10,10,10,12,7,,0.00,0,,257
2012-11-30,49,36,23,38,29,21,92,76,43,30.39,30.36,30.33,10,10,9,10,2,,0.00,4,,57